Вернуться в каталог

STARLINK-11582

АктивенСвязьVLEO
NORAD 62985·PAYLOAD·🇺🇸 United States

Запущен Feb 11, 2025 с Cape Canaveral Space Force Station

Loading…

Ближайшие Пролёты (ближайшие 24 часа)

TLE

СвежийSource: CelesTrak SupGP

Эпоха: Sep 14, 2026, 15:33 UTC

1 62985C 25031E   26257.64840278  .00090775  00000+0  70495-3 0  2574
2 62985  43.0003 302.5060 0001593 266.2681 337.8279 15.70796949    14

Отслеживайте STARLINK-11582 в реальном времени с AllMySat

Download on the App Store